Lapse_Rate
7.8 7.7 7.6 7.5 7.3 7.3 7.2 7.0 6.9 6.9 6.7 6.8 6.8 6.8 6.8 6.8 7.0 6.9 6.9 7.0 7.0 7.1 7.1 7.1 7.1 7.1 7.0 7.0 6.9 6.8 6.7 6.6 6.5 6.5 6.5 6.6 6.5 6.6 6.6 6.6 6.5 6.5 6.6
7.6 7.6 7.6 7.5 7.3 7.3 7.2 7.0 7.0 6.9 6.8 6.7 6.7 6.7 6.8 6.8 7.0 6.9 6.9 7.0 7.1 7.2 7.2 7.2 7.2 7.1 7.1 7.1 7.0 6.9 6.8 6.6 6.6 6.6 6.6 6.6 6.5 6.5 6.6 6.6 6.6 6.5 6.5
7.6 7.4 7.5 7.4 7.4 7.4 7.2 7.0 6.9 6.9 6.9 6.8 6.8 6.8 6.9 6.9 6.9 6.9 6.8 6.9 7.0 7.1 7.0 7.1 7.2 7.1 7.2 7.2 7.1 7.0 6.9 6.8 6.7 6.6 6.6 6.6 6.5 6.5 6.5 6.6 6.6 6.5 6.4
7.4 7.3 7.4 7.3 7.3 7.3 7.2 7.0 6.9 6.9 6.9 6.9 6.8 6.8 6.9 7.0 6.9 6.9 7.0 7.0 7.1 7.0 7.1 7.0 7.1 7.1 7.1 7.2 7.1 7.0 7.1 7.1 6.8 6.7 6.7 6.7 6.7 6.6 6.5 6.5 6.5 6.5 6.3
7.4 7.4 7.3 7.3 7.2 7.2 7.2 7.0 6.9 6.9 6.9 6.9 6.9 6.8 6.8 6.9 6.9 7.0 7.0 7.0 7.1 7.1 7.1 7.1 7.1 7.2 7.1 7.0 7.1 7.0 6.9 7.0 7.0 6.9 6.8 6.7 6.6 6.7 6.7 6.5 6.5 6.6 6.4
7.3 7.3 7.4 7.3 7.2 7.1 7.1 7.0 6.9 6.9 6.9 6.9 6.9 6.9 6.9 6.9 7.0 7.1 7.0 7.0 7.1 7.2 7.3 7.2 7.2 7.2 7.1 7.1 7.1 7.0 6.9 6.8 7.0 6.9 6.7 6.7 6.8 6.7 6.7 6.8 6.6 6.7 6.7
7.3 7.3 7.4 7.4 7.3 7.0 7.0 6.9 6.9 6.8 6.8 6.9 7.0 7.0 7.0 6.9 7.0 7.0 7.0 7.0 7.1 7.0 7.2 7.2 7.2 7.1 7.2 7.2 7.1 7.1 7.0 6.8 6.6 6.8 6.8 6.6 6.7 6.8 6.8 6.9 6.8 6.7 6.7
7.4 7.3 7.4 7.4 7.3 7.0 7.0 6.9 6.9 6.8 6.9 7.0 7.1 7.0 7.0 6.9 6.9 7.0 7.0 7.1 7.1 7.0 7.0 7.2 7.1 7.1 7.1 7.1 7.1 7.1 7.2 7.2 6.9 6.7 6.8 6.8 6.7 6.6 6.6 6.6 6.8 6.9 6.9
7.3 7.3 7.2 7.2 7.1 7.0 6.9 6.8 6.8 6.9 7.0 7.0 7.2 7.1 7.0 7.0 6.9 6.9 6.9 7.0 7.0 6.9 7.0 7.1 7.0 7.0 7.0 7.0 7.1 7.1 7.1 7.2 7.3 7.0 6.9 6.8 6.9 6.7 6.6 6.6 6.8 6.9 6.9
7.3 7.3 7.4 7.4 7.2 7.1 6.9 6.9 6.9 6.9 7.0 7.1 7.1 7.2 7.1 7.0 7.0 7.0 7.0 7.0 7.0 7.1 7.0 7.0 7.0 6.8 6.8 6.8 7.0 7.0 7.1 7.1 7.2 7.3 7.0 6.8 6.7 6.8 6.6 6.5 6.7 6.8 6.7
7.3 7.3 7.5 7.5 7.5 7.4 7.2 7.0 7.0 6.9 6.9 7.1 7.3 7.2 7.3 7.0 7.0 7.0 7.1 7.1 7.2 7.2 7.1 7.1 7.0 6.9 6.8 6.7 6.8 6.8 6.7 7.0 7.0 7.0 7.0 7.0 6.8 6.8 6.7 6.6 6.6 6.5 6.7
7.2 7.3 7.4 7.4 7.3 7.3 7.3 7.1 7.0 7.0 6.9 7.1 7.2 7.2 7.3 7.1 7.1 7.2 7.2 7.3 7.3 7.4 7.4 7.3 7.1 7.0 6.8 6.7 6.6 6.7 6.6 6.6 6.7 6.7 6.8 6.8 7.0 6.8 6.6 6.6 6.7 6.5 6.7
7.2 7.3 7.4 7.3 7.3 7.3 7.4 7.2 7.1 7.0 7.0 7.1 7.2 7.3 7.5 7.3 7.2 7.2 7.4 7.4 7.5 7.5 7.5 7.4 7.3 7.2 7.0 6.7 6.7 6.7 6.7 6.5 6.4 6.4 6.8 6.8 6.9 6.9 6.5 6.5 6.5 6.6 6.5
7.4 7.4 7.4 7.5 7.4 7.4 7.4 7.4 7.3 7.1 7.0 7.0 7.2 7.4 7.5 7.5 7.4 7.6 7.6 7.7 7.7 7.8 7.6 7.6 7.6 7.5 7.5 7.1 6.8 6.7 6.6 6.4 6.3 6.3 6.3 6.7 6.7 6.8 6.9 6.9 6.6 6.5 6.4
7.6 7.5 7.4 7.4 7.4 7.3 7.4 7.5 7.5 7.5 7.2 7.2 7.4 7.4 7.6 7.6 7.7 7.8 7.8 7.7 7.8 7.8 7.7 7.6 7.6 7.4 7.4 7.3 7.1 7.0 6.8 6.5 6.4 6.3 6.2 6.3 6.4 6.5 6.5 6.7 6.7 6.5 6.4
7.4 7.5 7.3 7.0 6.8 6.9 7.2 7.4 7.6 7.5 7.3 7.2 7.2 7.2 7.5 7.6 7.8 7.8 7.8 7.8 7.8 7.7 7.6 7.5 7.4 7.4 7.2 7.2 7.2 7.0 6.9 6.7 6.0 6.2 6.0 6.0 6.2 6.3 6.3 6.3 6.3 6.5 6.4
7.2 7.1 7.2 6.9 7.0 7.0 7.0 6.9 7.4 7.2 6.9 6.9 6.9 7.2 7.4 7.5 7.5 7.6 7.6 7.6 7.7 7.6 7.4 7.3 7.3 7.3 7.3 7.0 7.1 6.9 6.6 6.4 6.5 6.0 5.7 5.8 5.9 5.9 5.8 6.0 6.0 5.9 6.3
7.2 7.3 7.2 7.0 6.7 6.8 7.1 7.1 7.2 7.0 6.6 6.8 6.9 7.0 6.8 7.3 7.5 7.5 7.6 7.6 7.6 7.4 7.3 7.3 7.2 7.2 7.1 7.0 7.0 7.1 6.7 6.1 6.0 6.0 5.8 5.7 5.6 5.7 5.6 6.0 5.8 5.9 6.0
7.5 7.6 7.4 6.9 6.7 6.8 7.4 7.4 7.2 6.7 6.5 6.4 6.6 6.3 6.6 7.1 7.4 7.3 7.4 7.7 7.8 7.3 7.4 7.5 7.4 7.3 7.3 7.1 7.0 7.0 6.9 6.4 6.1 6.3 6.3 5.7 5.7 6.0 5.6 5.9 6.1 6.1 6.3
7.7 7.8 7.7 7.5 6.8 6.9 7.0 6.9 6.8 6.6 5.7 5.9 6.5 6.0 6.3 6.7 6.9 7.0 7.0 7.3 7.5 7.7 7.8 7.7 7.5 7.4 7.3 7.2 7.1 7.0 6.9 6.7 7.0 6.7 6.5 6.3 6.3 6.1 6.1 6.1 6.1 6.2 6.2
7.8 7.8 7.9 7.8 6.9 6.8 6.7 6.2 6.4 6.6 6.6 6.3 5.4 5.9 5.9 6.0 6.1 6.5 6.7 6.7 6.9 7.2 7.4 7.6 7.3 7.5 7.4 7.1 7.1 7.1 6.9 7.0 6.9 7.0 6.8 6.6 6.5 6.4 6.3 6.2 6.2 6.2 6.2
7.9 7.9 7.9 7.7 7.0 6.7 6.4 6.4 6.4 6.3 6.1 5.8 5.5 5.3 5.6 5.6 5.7 5.8 5.9 6.3 6.5 7.0 7.2 7.2 7.4 7.4 7.4 7.2 7.1 6.9 6.9 6.9 6.9 7.0 6.9 6.9 6.6 6.5 6.5 6.4 6.2 6.2 6.1
7.5 7.6 7.5 7.5 7.0 6.7 6.5 6.2 6.0 6.0 5.9 5.8 6.0 5.6 5.6 5.3 5.5 5.8 5.5 5.9 6.4 6.9 7.1 7.2 7.1 7.2 7.3 7.2 7.0 6.9 6.8 7.0 6.8 6.7 6.8 6.9 6.8 6.7 6.5 6.4 6.2 6.1 6.0
7.4 7.6 7.5 7.3 7.0 6.7 6.4 6.2 6.3 6.2 6.1 5.8 5.9 5.5 5.2 5.4 5.5 5.6 5.8 6.3 6.7 6.9 6.9 6.9 6.9 6.8 7.0 7.0 7.0 7.0 6.8 6.8 6.8 6.7 6.5 6.5 6.8 6.7 6.6 6.5 6.3 6.1 6.0
7.0 7.1 7.2 7.3 6.9 6.6 6.4 6.5 6.5 6.1 6.1 5.5 5.9 5.6 5.3 5.7 5.5 5.7 6.1 6.4 6.8 6.7 6.8 6.9 6.8 6.7 6.8 6.9 6.7 6.8 6.9 6.9 6.7 6.7 6.6 6.5 6.5 6.5 6.7 6.9 6.6 6.4 6.2
6.7 6.7 6.7 6.8 6.7 6.4 6.2 6.0 6.1 6.3 6.2 5.8 6.0 6.3 6.4 5.9 6.0 6.5 6.7 6.7 6.9 7.1 7.3 6.9 6.9 6.4 6.5 7.0 6.8 6.7 6.6 6.6 6.7 6.4 6.3 6.5 6.6 6.6 6.5 6.6 6.7 6.6 6.4
Wind_Speed
9 21 24 21 16 13 14 20 21 22 22 23 22 21 21 19 18 17 16 14 14 16 17 16 16 16 16 16 15 15 16 16 16 15 14 14 13 13 13 13 10 14 14
13 21 23 23 20 16 14 20 21 23 23 23 22 20 20 18 17 17 16 15 14 16 16 17 16 15 15 15 14 15 16 15 15 13 12 13 11 12 12 13 11 15 14
16 21 23 22 21 19 16 19 20 21 23 22 22 20 20 18 16 16 16 15 14 16 15 15 15 14 14 14 14 14 13 12 11 11 9 8 11 9 10 11 12 12 12
17 20 21 22 21 20 18 19 20 20 21 21 20 20 19 18 16 15 15 16 14 15 16 15 15 14 13 13 13 12 11 10 8 6 7 9 10 10 9 10 10 11 11
14 18 19 22 22 21 20 20 20 19 19 20 19 19 18 17 16 15 14 14 14 13 14 14 14 14 13 11 11 10 8 6 5 2 4 5 8 11 10 9 10 10 7
12 15 20 22 22 20 20 20 21 21 20 20 18 18 17 17 16 15 14 13 13 12 12 13 12 12 12 11 9 8 6 5 2 3 1 2 4 11 10 9 9 10 9
11 13 16 18 19 19 18 19 20 21 21 20 18 17 16 15 15 15 13 13 12 13 12 12 12 10 10 10 8 6 5 4 1 2 3 2 6 10 10 10 10 9 10
10 11 13 15 16 17 18 18 19 20 19 18 18 17 16 15 14 14 13 12 11 11 11 10 10 9 8 7 7 5 4 2 0 0 1 2 5 10 9 11 10 9 10
9 9 10 12 13 16 17 18 18 19 19 18 18 17 16 14 13 12 12 11 11 10 10 8 7 7 6 6 5 4 2 1 2 1 1 1 3 10 7 8 9 8 9
7 7 8 10 12 12 13 17 18 18 18 17 16 16 14 13 12 11 10 10 10 10 9 7 6 5 4 3 3 2 2 1 2 3 2 1 1 9 9 9 9 8 7
6 7 7 7 9 11 12 14 16 16 17 16 14 13 13 9 9 10 7 8 8 8 8 8 7 6 4 3 2 3 4 3 3 3 2 2 4 11 10 13 12 10 6
11 9 6 7 8 9 10 12 13 13 12 13 13 12 10 9 9 8 7 6 6 6 7 7 7 8 7 3 4 3 4 3 2 3 4 2 11 16 20 20 18 18 20
13 10 11 10 11 10 9 9 10 9 9 8 10 11 9 8 7 6 5 5 4 3 4 6 8 8 6 5 2 2 4 3 2 3 5 16 22 20 20 22 22 22 20
15 15 13 12 10 12 8 7 7 7 8 8 9 10 8 6 6 5 4 3 2 1 2 2 3 1 4 2 3 7 8 7 7 12 19 26 22 21 23 24 24 21 22
16 15 14 12 10 10 7 7 7 7 7 7 7 7 7 5 4 4 3 2 2 1 1 1 3 5 5 5 7 11 10 10 11 11 12 15 19 23 22 23 22 21 21
15 15 12 12 9 9 4 6 5 6 6 5 6 6 6 5 4 3 3 2 1 0 0 1 3 5 4 7 8 11 10 12 14 15 17 23 26 25 24 22 22 20 19
15 13 14 12 9 8 10 8 6 6 6 6 6 4 5 4 3 3 2 1 1 2 3 3 4 5 5 6 7 10 11 11 15 14 15 18 23 27 26 24 22 21 20
13 15 13 9 9 10 9 8 7 7 7 8 7 6 7 6 4 3 1 2 3 3 3 3 3 4 4 4 5 5 9 11 15 16 15 16 20 18 22 24 22 20 19
14 13 13 11 11 11 10 10 11 11 9 7 8 7 9 7 6 3 3 3 2 4 4 3 3 3 4 6 6 7 6 6 10 15 16 17 18 17 19 21 21 19 17
12 12 11 9 11 11 9 9 8 6 10 14 8 10 7 7 6 5 4 4 2 3 3 2 3 4 4 6 8 8 7 9 10 12 13 14 17 15 14 11 13 18 18
7 10 13 11 10 10 8 6 6 5 5 5 7 7 7 6 5 4 3 3 2 1 2 3 4 6 4 8 7 6 7 8 9 9 12 12 13 13 13 12 11 10 14
9 10 10 10 8 6 6 4 3 5 1 7 6 5 3 9 7 3 2 2 3 1 2 4 5 4 3 7 4 4 3 3 6 6 7 9 10 10 11 12 11 11 10
10 11 12 12 12 9 11 8 6 5 4 2 2 3 4 1 3 1 2 1 2 3 3 3 4 5 5 7 5 3 3 4 4 3 6 5 6 8 9 10 11 10 10
9 10 12 11 11 9 9 8 5 3 3 2 2 4 5 6 2 3 4 4 4 3 3 3 3 4 4 8 4 3 1 4 4 3 3 3 5 5 6 7 9 10 10
7 10 10 11 9 11 10 8 7 6 4 3 5 6 5 6 6 6 5 4 3 4 3 3 3 5 6 4 7 4 4 3 4 3 4 4 3 4 6 6 7 9 10
6 8 10 10 10 10 9 10 11 11 6 7 5 4 4 4 3 4 4 3 2 3 3 3 3 4 5 5 5 6 6 5 6 4 3 5 7 4 4 6 7 9 9
Wind_Direction
163 151 157 164 172 182 152 131 128 123 124 123 125 126 126 128 128 125 121 119 112 107 104 100 98 99 98 99 101 101 99 103 106 104 99 101 104 103 97 90 108 102 98
145 154 156 162 167 171 162 138 133 128 128 125 127 128 127 129 130 127 125 120 115 108 105 104 101 99 101 101 102 101 101 103 102 101 100 100 102 107 103 101 90 96 91
149 153 161 162 161 163 162 141 135 131 129 131 132 131 130 132 130 130 126 123 121 116 112 107 106 106 106 103 102 104 106 106 106 103 99 111 104 111 111 110 105 104 101
155 157 162 163 160 157 156 147 140 136 135 138 137 135 135 134 134 133 133 130 126 125 120 117 114 109 106 107 110 105 102 101 94 105 97 113 121 125 123 121 117 114 112
160 159 163 162 159 157 154 149 146 143 143 143 143 141 140 140 139 140 137 133 129 125 122 121 117 115 113 111 108 103 99 97 102 134 105 125 125 135 140 138 134 129 125
160 163 161 163 161 159 157 152 150 150 152 151 149 146 147 146 146 145 145 137 131 130 127 122 123 123 122 117 108 103 94 92 116 98 92 196 163 148 151 146 138 135 130
156 160 162 164 163 160 160 157 155 156 157 157 154 153 151 153 150 151 150 146 144 141 133 133 132 130 127 122 113 101 81 74 52 83 65 90 195 178 163 155 153 152 151
151 157 162 167 168 166 163 162 162 162 162 161 162 160 158 160 158 157 156 150 149 142 137 139 137 135 129 124 120 115 101 56 172 343 73 84 180 200 174 167 165 152 157
150 152 158 169 173 173 170 169 169 167 168 168 168 167 165 165 164 164 160 155 151 146 144 146 140 133 130 131 129 128 116 20 301 306 299 136 109 185 172 169 173 174 166
154 159 164 170 166 172 172 173 174 174 171 171 172 167 164 165 166 165 162 161 156 152 151 152 153 145 132 125 140 176 202 258 263 265 270 290 233 191 168 164 172 174 178
170 176 171 173 165 166 173 176 173 175 175 171 169 169 160 169 171 169 173 167 167 162 169 175 180 173 164 172 229 250 262 236 252 257 230 233 245 183 142 122 120 127 109
191 187 182 178 175 171 174 174 175 176 177 175 170 168 165 168 173 172 169 175 185 187 196 199 201 192 189 242 237 223 256 262 241 246 221 194 127 120 107 99 92 87 84
194 194 188 187 185 182 179 177 173 171 170 167 166 164 161 162 161 162 159 175 186 191 223 223 222 214 213 217 222 185 142 143 102 75 135 117 102 116 110 104 97 93 91
198 201 193 192 183 188 184 182 171 163 169 169 168 164 161 160 161 162 169 157 160 175 206 263 276 73 80 77 158 147 136 112 100 103 107 114 117 115 111 106 99 96 91
211 207 205 193 193 186 186 174 174 168 175 171 160 161 151 144 149 146 128 117 99 97 135 139 93 92 105 98 125 134 114 96 96 87 88 100 117 116 113 109 104 96 87
213 209 204 202 189 171 186 173 174 165 165 155 145 146 134 129 133 139 138 138 152 112 15 97 92 104 108 105 95 108 105 97 91 81 79 68 70 82 91 95 94 91 86
213 204 198 184 159 162 184 171 171 157 144 122 96 106 110 113 137 134 146 152 110 85 101 99 86 93 111 104 97 95 93 90 88 82 81 84 72 68 76 84 80 81 82
220 205 189 166 160 168 158 154 136 119 105 90 70 65 59 63 54 74 90 103 107 101 97 99 99 103 101 107 110 102 98 94 93 91 88 88 90 81 72 78 79 78 77
223 207 192 164 154 148 117 95 84 75 67 80 93 75 61 60 58 78 71 79 103 111 107 114 95 84 114 108 99 90 76 83 91 99 92 90 88 94 92 83 84 80 77
217 197 167 132 138 126 108 103 95 91 96 64 44 66 53 63 61 70 95 114 103 113 119 111 117 86 120 117 100 77 61 55 84 90 91 94 94 95 100 101 91 78 73
172 149 133 134 133 133 129 129 123 120 128 79 60 46 46 52 68 89 107 115 112 150 144 142 122 129 128 136 113 83 61 57 55 67 90 96 90 93 99 93 93 92 78
93 106 123 115 119 103 92 75 69 118 338 112 114 79 43 36 18 18 29 178 91 201 197 187 170 152 141 174 157 128 145 105 61 48 84 89 95 95 89 91 87 83 84
76 93 103 109 101 100 110 112 98 93 74 67 118 152 95 59 269 255 244 118 206 210 205 197 203 191 174 187 205 178 161 181 131 68 59 85 96 97 96 94 94 88 85
83 96 104 109 119 139 149 134 144 132 123 213 198 144 161 151 248 288 239 195 181 194 225 216 203 218 206 199 190 211 343 134 172 154 114 97 111 107 100 99 97 93 85
115 121 125 128 150 163 162 151 139 131 127 179 178 174 156 163 173 205 226 216 199 201 202 215 208 219 218 230 223 183 179 162 160 147 160 164 130 130 121 122 116 111 100
114 130 146 150 161 174 184 173 164 166 164 193 185 168 169 169 189 237 236 238 212 221 230 218 211 223 229 231 231 225 199 184 181 167 134 165 168 158 143 135 129 127 121